sat.trackr.live / text

‹ back to catalog

STARLINK-3843

NORAD 52341 · 2022-045L

PAYLOAD ACTIVE UNKNOWN

§ Identity

Operator
Country
US
Launch date
2022-04-29
Launch site
AFETR
Launch vehicle
Mass (kg)
RCS (m²)

Purposes: comms

External: N2YO · Heavens-Above · Gunter

§ Orbital elements

Epoch: 2026-09-20T04:00:03.000096Z

Period
93.79 min
Inclination
53.1611°
Eccentricity
0.0000931
Mean motion
15.35398246 rev/d
Perigee alt
459.1 km
Apogee alt
460.4 km
Semi-major
6,837.9 km
B*
1.8236e-4
RAAN
53.0569°
Arg perigee
85.2026°
Mean anomaly
354.8356°
Rev number
583

§ Raw data

STARLINK-38431 52341U 22045L   26263.16670139  .00005985  00000+0  18236-3 0  99992 52341  53.1611  53.0569 0000931  85.2026 354.8356 15.35398246  5834

JSON: /api/v1/satellites/52341 · /tle

For live sub-satellite position, see the globe view (requires WebGL).

§ Visibility from observer

Set your observer location to see the next 7 days of passes ≥ 10°. The values pass through the URL so the page stays shareable.

No JS? Fill the form by hand. The geolocation button needs JavaScript.